STARLINK-1371, 45542

Orbit data source: Space-Track

STARLINK-1371, 45542 is a payload satellite owned by SpaceX/Seattle (US) in LEO that was launched on Wed, 22 Apr 2020 UTC via an FALCON 9 launch vehicle from the Air Force Eastern Test Range (AFETR). Payload-class satellites include a variety of spacecraft equipped with specific instruments for various scientific and technological missions. These include communications satellites like Starlink; space stations such as the ISS; scientific satellites like the Hubble; Earth observation satellites from companies like Planet Labs, Umbra, and HawkEye 360; GPS; miniature CubeSats for education and research; and military/defense satellites.

Loading next visibility...
Identifier
45542, 2020-025M
Orbit
LEO
Country
Flag of USUS
Related business
Manufacturer
SpaceX/Seattle
Mission
Operational Commercial Communications
Bus & Motor
STARLINK, Unknown motor
Mass
260 kg wet, ~248 kg dry
Launch date (UTC)
2020-04-22 (5 years ago)
Launch vehicle
FALCON 9
Launch site
Air Force Eastern Test Range (AFETR)
Object type
Payload
Rocket body
Debris
Shape & HBR
Box + 1 Pan, 4.4 m
Radar Cross Section
13.562 m², Large (>1 m²)

Expand to show TLE details & history
Last TLE update: 22 hours ago

TLE from 22 hours ago
0 STARLINK-1371
1 45542U 20025M   25260.14513199 -.00000672  00000-0 -26212-4 0  9991
2 45542  53.0553 165.6914 0001208  96.7712 263.3414 15.06387611298930
Epoch: 2025-09-17T03:28Z
TLE epoch observation values (Epoch: 2025-09-17T03:28:59.403Z)
Latitude
-0.00008°
Longitude
117.11854°
Altitude
548.226 km
Speed
7.589 km/s
True Right ascension
11h 02m 45s
True Declination
0° 00' 00"
Sunlit
Object was in daylight at epoch
Visualization orbit readout
Latitude
Unknown
Longitude
Unknown
Altitude
Unknown
Speed
Unknown
Apparent Right ascension
Unknown
Apparent Declination
Unknown
Sunlit
N/A
Visualization observer readout
Local Sidereal Time
18:07:33
Azimuth
Unknown
Elevation
Unknown
Doppler factor
Unknown
Orbital elements
Apogee altitude
548.357 km
Perigee altitude
546.684 km
Semi-major axis
6,925.657 km
Eccentricity
0.00012
Inclination
53.0553°
RAAN
165.6914°
Arg. of periapsis
96.7712°
True anomaly
263.32765°
Mean anomaly
263.3414°
Eccentric anomaly
263.33453°
Mean motion
3.76575 °/min
Orbital period
95.6 mins
BSTAR
-0.000026212
Loading maneuver chart data...
Computing Atmospheric mass density...

Documentation

Showing up to 5 results
|